Location: Central Falls
(41.8900°N, 71.3929°W)
Time: 15:07:38
(UTC+00:00)

Vanguard 3 - Visible Passes

Search period start: 03 December 2023 00:00
Search period end: 13 December 2023 00:00
Orbit: 507 x 3241 km, 33.3° (Epoch: 03 December)

Date Brightness Start Highest point End Pass type
(mag) Time Alt. Az. Time Alt. Az. Time Alt. Az.
03 Dec 10.5 00:50:47 10° S 00:55:47 16° S 00:55:47 16° S visible
03 Dec 10.6 23:36:05 10° SSE 23:40:56 12° SSE 23:43:25 11° SE visible
04 Dec 10.6 01:43:30 10° SSW 01:47:45 19° SSW 01:47:45 19° SSW visible
05 Dec 10.3 00:25:47 10° SSW 00:35:21 22° SSE 00:35:21 22° SSE visible
05 Dec 10.9 02:38:03 10° SW 02:39:42 14° SW 02:39:42 14° SW visible
05 Dec 10.5 23:09:46 10° S 23:18:10 16° SSE 23:22:58 13° SE visible
06 Dec 10.2 01:19:08 10° SW 01:27:18 27° SSW 01:27:18 27° SSW visible
07 Dec 10.1 00:00:59 10° SSW 00:13:32 27° SSE 00:14:53 26° SE visible
07 Dec 10.5 02:14:01 10° SW 02:19:13 23° SW 02:19:13 23° SW visible
07 Dec 10.5 22:44:18 10° S 22:55:14 20° SSE 23:02:28 13° ESE visible
08 Dec 9.9 00:54:48 10° SW 01:06:47 36° S 01:06:47 36° S visible
08 Dec 11.0 03:09:45 10° WSW 03:11:07 13° WSW 03:11:07 13° WSW visible
08 Dec 10.0 23:36:19 10° SSW 23:50:37 31° SSE 23:54:21 28° SE visible
09 Dec 10.1 01:49:57 10° WSW 01:58:40 33° SW 01:58:40 33° SW visible
09 Dec 10.5 22:19:15 10° S 22:32:07 23° SSE 22:41:52 11° ESE visible
10 Dec 9.7 00:30:27 10° SW 00:46:03 43° SSE 00:46:12 43° SSE visible
10 Dec 10.6 02:45:53 10° WSW 02:50:31 22° WSW 02:50:31 22° WSW visible
10 Dec 10.0 23:11:47 10° SSW 23:27:32 35° SSE 23:33:42 26° ESE visible
11 Dec 9.8 01:25:50 10° WSW 01:38:01 44° SSW 01:38:01 44° SSW visible
11 Dec 11.1 03:42:11 10° W 03:42:20 10° W 03:42:20 10° W visible
11 Dec 10.6 21:54:29 10° SSW 22:08:50 27° SSE 22:20:26 10° E visible
12 Dec 9.6 00:06:11 10° SW 00:23:02 47° SSE 00:25:30 44° SE visible
12 Dec 10.3 02:21:56 10° WSW 02:29:49 32° WSW 02:29:49 32° WSW visible
12 Dec 10.1 22:47:25 10° SW 23:04:15 39° SSE 23:12:57 22° ESE visible
